Regional Weather Roundup
Issued by NWS New Orleans/Baton Rouge, LA

Home | Current Version | Previous Version | Text Only | Print | Product List | Glossary On
Versions: 1 2 3 4 5 6 7 8 9 10 11 12 13 14 15 16 17 18 19 20 21 22 23 24 25 26 27 28 29 30 31 32 33 34 35 36 37 38 39 40 41 42 43 44 45 46 47 48 49 50
836
ASUS44 KLIX 060713
RWRLIX
NEW ORLEANS REGIONAL WEATHER ROUNDUP
NATIONAL WEATHER SERVICE NEW ORLEANS LA
100 AM CST TUE DEC 06 2016

NOTE: "FAIR" INDICATES FEW OR NO CLOUDS BELOW 12,000 FEET WITH NO
      SIGNIFICANT WEATHER AND/OR OBSTRUCTIONS TO VISIBILITY.
      SKY/WX - SKY CONDITION AND SIGNIFICANT WEATHER.
      TMP - AIR TEMPERATURE.     DP    - DEWPOINT TEMPERATURE.
      RH  - RELATIVE HUMIDITY.   PRES  - PRESSURE.
      HI  - HEAT INDEX.          WCI   - WIND CHILL INDEX.

*  THESE STATIONS ARE NOT NWS OR FAA STATIONS AND ARE NOT UNDER
   NWS QUALITY CONTROL.

LAZ038-040-048-061>063-065>067-069-060800-
SOUTHEAST LOUISIANA

CITY           SKY/WX    TMP DP  RH WIND       PRES   REMARKS
N.O. AUDUBON   NOT AVBL
N.O. INTL ARPT CLOUDY    65  65 100 W16G25    29.70R
N.O. LAKEFRONT CLOUDY    67  66  97 SW18      29.69R FOG
N.O. DOWNTOWN*   N/A     67  66  97 SW7       29.71R FOG
RESERVE*       CLOUDY    63  61  94 W15G23    29.73R
SLIDELL        CLOUDY    65  65 100 S6        29.67S
BATON ROUGE    CLOUDY    59  57  93 SW17G23   29.73R
BOOTHVILLE     CLOUDY    65  65 100 W18G29    29.73R
BELLE CHASSE   CLOUDY    64  64 100 SW13G26   29.71R
BOGALUSA*      CLOUDY    65  62  90 S7        29.67F
GALLIANO*      CLOUDY    62  59  90 W17       29.74S
NEW ROADS*     CLOUDY    55  55  98 W13       29.74R FOG
GONZALES*      CLOUDY    58  57  96 W13G24    29.73R
HAMMOND*       DRIZZLE   64  63  94 SW7       29.68S
HOUMA*         CLOUDY    60  59  97 W13G20    29.75R
PORT FOURCHON* CLOUDY    66  63  88 W20       29.74S

$$

MSZ070-080>082-060800-
SOUTHERN MISSISSIPPI

CITY           SKY/WX    TMP DP  RH WIND       PRES   REMARKS
MCCOMB         CLOUDY    63  62  97 S9        29.65F FOG
GULFPORT       CLOUDY    65  65 100 S6        29.66F
BILOXI         CLOUDY    64  64 100 S3        29.66F
PASCAGOULA     LGT RAIN  64  62  93 CALM      29.67F

$$

COASTAL OBSERVATIONS
LAKE AND NEARSHORE STATIONS

STATION/POSITION TIME  TEMP    WIND        PRES    WAVE
                       AIR SEA DIR/SP/G            HT/PER
                 (UTC) (F)     (DEG/KT/KT) (MB)    (FT/S)
PASCAGOULA       0648   65     130/  5/  6 1004.3
WAVELAND YACHT   0648   64 61  190/  4/  5 1004.7
GRAND ISLE       0648   65 68  280/ 19/ 23 1007.1
SOUTHWEST PASS   0648          280/ 29/ 33   N/A
NEW CANAL        0648   67 63  230/  9/ 12 1004.6
SHELL BEACH      0648   67 64  220/ 15/ 19 1005.4

OFFSHORE STATIONS

STATION/POSITION TIME  TEMP    WIND        PRES    WAVE
                       AIR SEA DIR/SP/G            HT/PER
                 (UTC) (F)     (DEG/KT/KT) (MB)    (FT/S)
64 S DAUPHIN ISL 0650   75 75  220/ 17/ 21 1005.6    6/ 6

$$





USA.gov is the U.S. government's official web portal to all federal, state and local government web resources and services.